Hourly Data Report for July 14, 2013

All times are specified in Local Standard Time (LST). Add 1 hour to adjust for Daylight Saving Time where and when it is observed.

VICTORIA INTL A
BRITISH COLUMBIA

48°38'50.000" N
123°25'33.000" W
19.50 m
1018621
71799
YYJ

Download Data

Hourly Data (July 2013)
Hourly Data Report for July 14, 2013
Temp Definition
°C
Dew Point Temp Definition
°C
Rel Hum Definition
%
Wind Dir Definition
10's deg

Wind Spd Definition
km/h
Visibility Definition
km
Stn Press Definition
kPa
Hmdx Definition


Wind Chill Definition


Weather Definition


TIME
00:00 Legend Double Dagger 13.3 9.8 79 24 6 48.3 101.82     LegendNANA
01:00 Legend Double Dagger 13.8 11.0 83 25 8 48.3 101.80     Clear
02:00 Legend Double Dagger 12.9 10.6 86 24 9 48.3 101.81     LegendNANA
03:00 Legend Double Dagger 12.1 10.2 88 23 10 48.3 101.80     LegendNANA
04:00 Legend Double Dagger 12.4 10.3 87 27 10 48.3 101.80     Clear
05:00 Legend Double Dagger 11.8 10.2 90 23 10 48.3 101.81     LegendNANA
06:00 Legend Double Dagger 15.0 11.2 78 29 9 48.3 101.84     LegendNANA
07:00 Legend Double Dagger 16.1 11.5 74 29 6 48.3 101.82     Clear
08:00 Legend Double Dagger 17.8 11.7 67 13 9 48.3 101.81     LegendNANA
09:00 Legend Double Dagger 18.4 10.8 61 13 12 48.3 101.79     LegendNANA
10:00 Legend Double Dagger 18.8 10.5 58 12 14 48.3 101.74     Clear
11:00 Legend Double Dagger 19.1 11.0 59 12 15 48.3 101.71     LegendNANA
12:00 Legend Double Dagger 20.7 11.2 54 13 18 48.3 101.66     LegendNANA
13:00 Legend Double Dagger 20.3 9.4 49 12 31 48.3 101.57     Clear
14:00 Legend Double Dagger 21.5 8.2 42 11 22 48.3 101.51     LegendNANA
15:00 Legend Double Dagger 20.2 9.9 51 9 16 48.3 101.48     LegendNANA
16:00 Legend Double Dagger 19.9 10.7 55 3 11 48.3 101.46     Clear
17:00 Legend Double Dagger 19.3 9.9 54 4 9 48.3 101.46     LegendNANA
18:00 Legend Double Dagger 21.4 10.4 49 1 16 48.3 101.44     LegendNANA
19:00 Legend Double Dagger 20.6 10.5 52 2 13 48.3 101.46     Clear
20:00 Legend Double Dagger 19.4 10.5 56 16 5 48.3 101.47     LegendNANA
21:00 Legend Double Dagger 17.5 10.9 65 28 2 48.3 101.49     LegendNANA
22:00 Legend Double Dagger 15.1 11.0 76 19 6 48.3 101.50     Clear
23:00 Legend Double Dagger 14.7 11.0 78 16 6 48.3 101.51     LegendNANA

Notes on Data Quality.

Legend

  • E = Estimated
  • M = Missing
  • NA = Not Available
  • ‡ = Partner data that is not subject to review by the National Climate Archives
Date modified: